Location: České Budějovice
(48.9757°N, 14.4803°E)
Time: 13:02:31
(UTC+02:00)

ISS - Visible Passes

Search period start: 22 October 2019 00:00
Search period end: 31 October 2019 23:00
Orbit: 411 x 421 km, 51.6° (Epoch: 22 October)

Date Brightness Start Highest point End Pass type
(mag) Time Alt. Az. Time Alt. Az. Time Alt. Az.
24 Oct -1.0 06:49:57 10° S 06:52:26 19° SE 06:54:56 10° E visible
25 Oct -0.8 06:02:31 10° SSE 06:04:04 13° SE 06:05:36 10° ESE visible
26 Oct -2.5 06:48:31 10° SW 06:51:42 40° SSE 06:54:53 10° ENE visible
27 Oct -1.9 05:00:47 13° SSW 05:03:12 27° SE 05:06:07 10° E visible
28 Oct -1.4 04:14:38 18° SE 04:14:44 18° SE 04:17:08 10° E visible
28 Oct -3.7 05:47:43 10° WSW 05:51:04 79° SSE 05:54:27 10° ENE visible
29 Oct -3.3 05:01:15 33° SW 05:02:28 56° SSE 05:05:47 10° ENE visible
30 Oct -1.9 04:14:50 30° ESE 04:14:50 30° ESE 04:17:03 10° ENE visible
30 Oct -3.7 05:47:44 14° W 05:50:32 66° NNW 05:53:53 10° ENE visible
31 Oct -3.9 05:01:14 57° W 05:01:50 82° NNW 05:05:13 10° ENE visible
